This is the latest recevied weather packets stored in our database for station/object GBTWP-2. If no packets are shown the sender has not sent any weather packets the latest 10 day(s).
| Time | Temp. | Humidity | Pressure | Rain* | Wind** | Luminosity | Snow |
|---|---|---|---|---|---|---|---|
| 1788552419 | 26.67° C | 75% | 1016.6 hPa | 0 mm | - | 352 W/m² | - |
| 1788552119 | 26.11° C | 76% | 1016.5 hPa | 0 mm | - | 372 W/m² | - |
| 1788551820 | 25.56° C | 77% | 1016.8 hPa | 0 mm | - | 346 W/m² | - |
| 1788551520 | 25.56° C | 77% | 1016.6 hPa | 0 mm | - | 378 W/m² | - |
| 1788551218 | 25.56° C | 77% | 1016.9 hPa | 0 mm | - | 313 W/m² | - |
| 1788550919 | 25.56° C | 77% | 1016.8 hPa | 0 mm | - | 352 W/m² | - |
| 1788550620 | 25.56° C | 76% | 1016.8 hPa | 0 mm | - | 319 W/m² | - |
| 1788550319 | 25.56° C | 77% | 1016.9 hPa | 0 mm | - | 359 W/m² | - |
| 1788550020 | 25° C | 81% | 1017.1 hPa | 0 mm | - | 262 W/m² | - |
| 1788549717 | 25° C | 81% | 1017.1 hPa | 0 mm | - | 291 W/m² | - |
| 1788549420 | 25° C | 79% | 1017.2 hPa | 0 mm | - | 321 W/m² | - |
| 1788549119 | 25° C | 81% | 1017.3 hPa | 0 mm | - | 300 W/m² | - |
| 1788548818 | 25° C | 81% | 1017.4 hPa | 0 mm | - | 253 W/m² | - |
| 1788548519 | 24.44° C | 82% | 1017.4 hPa | 0 mm | - | 266 W/m² | - |
| 1788548218 | 24.44° C | 83% | 1017.4 hPa | 0 mm | - | 255 W/m² | - |
| 1788547919 | 24.44° C | 83% | 1017.2 hPa | 0 mm | - | 230 W/m² | - |
| 1788547617 | 24.44° C | 84% | 1017.2 hPa | 0 mm | - | 202 W/m² | - |
| 1788547319 | 23.89° C | 85% | 1017.2 hPa | 0 mm | - | 224 W/m² | - |
| 1788547019 | 23.89° C | 85% | 1017.3 hPa | 0 mm | - | 224 W/m² | - |
| 1788546720 | 23.89° C | 86% | 1017.2 hPa | 0 mm | - | 219 W/m² | - |
| 1788546419 | 23.89° C | 86% | 1017.4 hPa | 0 mm | - | 213 W/m² | - |
| 1788546125 | 23.89° C | 86% | 1017.3 hPa | 0 mm | - | 209 W/m² | - |
| 1788545819 | 23.89° C | 87% | 1017.2 hPa | 0 mm | - | 213 W/m² | - |
| 1788545518 | 23.33° C | 87% | 1017.3 hPa | 0 mm | - | 212 W/m² | - |
| 1788545220 | 23.33° C | 90% | 1017.3 hPa | 0 mm | - | 225 W/m² | - |
* Rain latest hour (hover to see other rain measurements)
** Current wind speed in m/s (hover to see current wind gust speed)